Torna al catalogo

COSMOS 1275 DEB

AttivoPO
NORAD 12775·DEBRIS·🇷🇺 Russia

Lanciato Jun 4, 1981 da Plesetsk Cosmodrome

Loading…

Prossimi Passaggi (prossime 24 ore)

TLE

AggiornatoSource: Space-Track

Epoca: Sep 13, 2026, 20:50 UTC

1 12775U 81053DU  26256.86843634  .00000764  00000-0  88553-3 0  9991
2 12775  83.3337 199.9370 0148843 145.8063 271.9279 13.63065189224180

Traccia COSMOS 1275 DEB in tempo reale con AllMySat

Download on the App Store